| time (UTC) | temp F | wind direction | speed MPH | gust MPH | rain 1hr in | rain 24hr in | rain mn in | humidity % | barometer mb |
| 20260504201831 | 73 | 175 | 2.0 | 14.0 | 0.00 | 0.00 | 0.00 | 38 | 1008.5 |
| 20260504201323 | 73 | 175 | 6.0 | 14.0 | 0.00 | 0.00 | 0.00 | 42 | 1008.5 |
| 20260504200815 | 72 | 177 | 4.0 | 9.0 | 0.00 | 0.00 | 0.00 | 40 | 1008.6 |
| 20260504200327 | 73 | 182 | 4.0 | 9.0 | 0.00 | 0.00 | 0.00 | 40 | 1008.6 |
| 20260504195816 | 73 | 205 | 5.0 | 10.0 | 0.00 | 0.00 | 0.00 | 38 | 1008.8 |
| 20260504195332 | 73 | 159 | 6.0 | 10.0 | 0.00 | 0.00 | 0.00 | 40 | 1008.9 |
| 20260504194824 | 73 | 179 | 5.0 | 7.0 | 0.00 | 0.00 | 0.00 | 43 | 1008.9 |
| 20260504194317 | 73 | 177 | 3.0 | 8.0 | 0.00 | 0.00 | 0.00 | 44 | 1009.0 |
| 20260504193850 | 72 | 167 | 4.0 | 8.0 | 0.00 | 0.00 | 0.00 | 43 | 1009.1 |
| 20260504193341 | 71 | 162 | 3.0 | 7.0 | 0.00 | 0.00 | 0.00 | 39 | 1009.2 |
| 20260504192831 | 71 | 161 | 2.0 | 6.0 | 0.00 | 0.00 | 0.00 | 43 | 1009.2 |
| 20260504192323 | 71 | 161 | 3.0 | 8.0 | 0.00 | 0.00 | 0.00 | 43 | 1009.3 |
| 20260504191815 | 71 | 169 | 5.0 | 12.0 | 0.00 | 0.00 | 0.00 | 39 | 1009.4 |
| 20260504191326 | 72 | 157 | 4.0 | 12.0 | 0.00 | 0.00 | 0.00 | 39 | 1009.6 |
| 20260504190822 | 72 | 161 | 5.0 | 10.0 | 0.00 | 0.00 | 0.00 | 40 | 1009.6 |
| 20260504190334 | 72 | 178 | 5.0 | 10.0 | 0.00 | 0.00 | 0.00 | 44 | 1009.6 |
| 20260504185824 | 72 | 184 | 6.0 | 10.0 | 0.00 | 0.00 | 0.00 | 41 | 1009.7 |
| 20260504185316 | 72 | 188 | 6.0 | 11.0 | 0.00 | 0.00 | 0.00 | 39 | 1009.7 |
| 20260504184828 | 71 | 151 | 4.0 | 9.0 | 0.00 | 0.00 | 0.00 | 40 | 1009.8 |
| 20260504184320 | 71 | 186 | 6.0 | 12.0 | 0.00 | 0.00 | 0.00 | 39 | 1009.8 |
| 20260504183831 | 72 | 165 | 6.0 | 12.0 | 0.00 | 0.00 | 0.00 | 38 | 1009.8 |
| 20260504183323 | 73 | 186 | 6.0 | 10.0 | 0.00 | 0.00 | 0.00 | 39 | 1009.8 |
| 20260504182816 | 73 | 142 | 4.0 | 13.0 | 0.00 | 0.00 | 0.00 | 42 | 1009.8 |
| 20260504182332 | 73 | 192 | 8.0 | 13.0 | 0.00 | 0.00 | 0.00 | 39 | 1009.8 |
| 20260504181844 | 73 | 155 | 7.0 | 13.0 | 0.00 | 0.00 | 0.00 | 43 | 1009.9 |
| 20260504181315 | 73 | 190 | 7.0 | 13.0 | 0.00 | 0.00 | 0.00 | 38 | 1010.0 |
| 20260504180827 | 74 | 178 | 6.0 | 12.0 | 0.00 | 0.00 | 0.00 | 38 | 1010.1 |
| 20260504180319 | 73 | 155 | 6.0 | 11.0 | 0.00 | 0.00 | 0.00 | 42 | 1010.2 |
| 20260504175829 | 73 | 177 | 3.0 | 7.0 | 0.00 | 0.00 | 0.00 | 38 | 1010.2 |
| 20260504175342 | 72 | 161 | 3.0 | 10.0 | 0.00 | 0.00 | 0.00 | 37 | 1010.4 |
| 20260504174834 | 71 | 17 | 2.0 | 10.0 | 0.00 | 0.00 | 0.00 | 38 | 1010.4 |
| 20260504174325 | 71 | 175 | 7.0 | 12.0 | 0.00 | 0.00 | 0.00 | 38 | 1010.5 |
| 20260504173817 | 71 | 175 | 8.0 | 12.0 | 0.00 | 0.00 | 0.00 | 43 | 1010.5 |
| 20260504173332 | 72 | 175 | 6.0 | 11.0 | 0.00 | 0.00 | 0.00 | 41 | 1010.5 |
| 20260504172824 | 71 | 155 | 4.0 | 15.0 | 0.00 | 0.00 | 0.00 | 41 | 1010.6 |
| 20260504172316 | 71 | 158 | 5.0 | 15.0 | 0.00 | 0.00 | 0.00 | 44 | 1010.7 |
| 20260504171848 | 71 | 103 | 3.0 | 9.0 | 0.00 | 0.00 | 0.00 | 41 | 1010.7 |
| 20260504171320 | 71 | 163 | 6.0 | 12.0 | 0.00 | 0.00 | 0.00 | 44 | 1010.9 |
| 20260504170852 | 71 | 182 | 8.0 | 12.0 | 0.00 | 0.00 | 0.00 | 41 | 1010.9 |
| 20260504170323 | 70 | 142 | 4.0 | 10.0 | 0.00 | 0.00 | 0.00 | 44 | 1010.9 |
| 20260504160348 | 68 | 284 | 3.0 | 8.0 | 0.00 | 0.00 | 0.00 | 39 | 1011.8 |
| 20260504150845 | 67 | 11 | 3.0 | 5.0 | 0.00 | 0.00 | 0.00 | 46 | 1012.2 |
| 20260504150316 | 67 | 168 | 2.0 | 6.0 | 0.00 | 0.00 | 0.00 | 44 | 1012.2 |
| 20260504141316 | 64 | 161 | 3.0 | 10.0 | 0.00 | 0.00 | 0.00 | 51 | 1012.3 |
| 20260504140829 | 63 | 188 | 4.0 | 9.0 | 0.00 | 0.00 | 0.00 | 47 | 1012.4 |
| 20260504140341 | 63 | 133 | 4.0 | 9.0 | 0.00 | 0.00 | 0.00 | 48 | 1012.4 |
| 20260504130325 | 59 | 179 | 4.0 | 11.0 | 0.00 | 0.00 | 0.00 | 54 | 1012.8 |
| 20260504110316 | 53 | 174 | 3.0 | 7.0 | 0.00 | 0.00 | 0.00 | 47 | 1013.1 |
| 20260504100326 | 52 | 175 | 3.0 | 7.0 | 0.00 | 0.00 | 0.00 | 47 | 1013.3 |
| 20260504081814 | 51 | 171 | 2.0 | 6.0 | 0.00 | 0.00 | 0.00 | 46 | 1013.6 |
| 20260504081330 | 51 | 167 | 1.0 | 3.0 | 0.00 | 0.00 | 0.00 | 45 | 1013.6 |
| 20260504080821 | 52 | 177 | 2.0 | 4.0 | 0.00 | 0.00 | 0.00 | 45 | 1013.6 |
| 20260504080314 | 52 | 172 | 1.0 | 4.0 | 0.00 | 0.00 | 0.00 | 45 | 1013.5 |
| 20260504070316 | 51 | 169 | 2.0 | 6.0 | 0.00 | 0.00 | 0.00 | 48 | 1013.8 |
| 20260504050326 | 50 | 176 | 1.0 | 4.0 | 0.00 | 0.00 | 0.00 | 46 | 1014.4 |
| 20260504045815 | 50 | 180 | 2.0 | 5.0 | 0.00 | 0.00 | 0.00 | 46 | 1014.4 |
| 20260504045328 | 50 | 169 | 2.0 | 5.0 | 0.00 | 0.00 | 0.00 | 46 | 1014.4 |
| 20260504044819 | 50 | 171 | 2.0 | 5.0 | 0.00 | 0.00 | 0.00 | 46 | 1014.4 |
| 20260504044331 | 50 | 165 | 3.0 | 5.0 | 0.00 | 0.00 | 0.00 | 44 | 1014.4 |
| 20260504043824 | 50 | 170 | 2.0 | 5.0 | 0.00 | 0.00 | 0.00 | 44 | 1014.4 |
| 20260504043316 | 50 | 173 | 2.0 | 5.0 | 0.00 | 0.00 | 0.00 | 44 | 1014.4 |
| 20260504042828 | 50 | 173 | 3.0 | 5.0 | 0.00 | 0.00 | 0.00 | 44 | 1014.4 |
| 20260504042324 | 51 | 170 | 3.0 | 5.0 | 0.00 | 0.00 | 0.00 | 43 | 1014.4 |
| 20260504041816 | 51 | 159 | 3.0 | 5.0 | 0.00 | 0.00 | 0.00 | 43 | 1014.4 |
| 20260504041329 | 51 | 169 | 3.0 | 6.0 | 0.00 | 0.00 | 0.00 | 43 | 1014.5 |
| 20260504040841 | 51 | 171 | 4.0 | 5.0 | 0.00 | 0.00 | 0.00 | 43 | 1014.5 |
| 20260504040333 | 51 | 175 | 3.0 | 6.0 | 0.00 | 0.00 | 0.00 | 43 | 1014.5 |
| 20260504035843 | 51 | 173 | 3.0 | 6.0 | 0.00 | 0.00 | 0.00 | 43 | 1014.5 |
| 20260504035314 | 51 | 175 | 1.0 | 5.0 | 0.00 | 0.00 | 0.00 | 43 | 1014.5 |
| 20260504034826 | 51 | 170 | 4.0 | 5.0 | 0.00 | 0.00 | 0.00 | 42 | 1014.5 |
| 20260504034338 | 51 | 167 | 2.0 | 4.0 | 0.00 | 0.00 | 0.00 | 42 | 1014.5 |
| 20260504033813 | 51 | 173 | 1.0 | 4.0 | 0.00 | 0.00 | 0.00 | 43 | 1014.5 |
| 20260504033346 | 51 | 170 | 2.0 | 4.0 | 0.00 | 0.00 | 0.00 | 43 | 1014.3 |
| 20260504032817 | 51 | 168 | 0.0 | 2.0 | 0.00 | 0.00 | 0.00 | 43 | 1014.3 |
| 20260504032329 | 51 | 168 | 0.0 | 2.0 | 0.00 | 0.00 | 0.00 | 43 | 1014.3 |
| 20260504031821 | 50 | 167 | 0.0 | 2.0 | 0.00 | 0.00 | 0.00 | 43 | 1014.3 |
| 20260504031332 | 50 | 167 | 1.0 | 3.0 | 0.00 | 0.00 | 0.00 | 44 | 1014.4 |
| 20260504030824 | 50 | 165 | 1.0 | 4.0 | 0.00 | 0.00 | 0.00 | 44 | 1014.3 |
| 20260504030316 | 50 | 175 | 1.0 | 4.0 | 0.00 | 0.00 | 0.00 | 45 | 1014.3 |
| 20260504025826 | 49 | 178 | 2.0 | 4.0 | 0.00 | 0.00 | 0.00 | 45 | 1014.3 |
| 20260504025322 | 49 | 169 | 1.0 | 4.0 | 0.00 | 0.00 | 0.00 | 46 | 1014.3 |
| 20260504024814 | 50 | 167 | 2.0 | 4.0 | 0.00 | 0.00 | 0.00 | 46 | 1014.4 |
| 20260504024346 | 51 | 170 | 4.0 | 5.0 | 0.00 | 0.00 | 0.00 | 45 | 1014.4 |
| 20260504023816 | 51 | 113 | 0.0 | 2.0 | 0.00 | 0.00 | 0.00 | 44 | 1014.3 |
| 20260504023328 | 51 | 113 | 0.0 | 1.0 | 0.00 | 0.00 | 0.00 | 44 | 1014.3 |
| 20260504022820 | 51 | 105 | 0.0 | 2.0 | 0.00 | 0.00 | 0.00 | 43 | 1014.3 |
| 20260504022313 | 51 | 100 | 1.0 | 3.0 | 0.00 | 0.00 | 0.00 | 44 | 1014.3 |
| 20260504021825 | 51 | 100 | 0.0 | 3.0 | 0.00 | 0.00 | 0.00 | 43 | 1014.3 |
| 20260504021317 | 51 | 103 | 1.0 | 3.0 | 0.00 | 0.00 | 0.00 | 44 | 1014.2 |
| 20260504020833 | 50 | 99 | 1.0 | 3.0 | 0.00 | 0.00 | 0.00 | 44 | 1014.2 |
| 20260504020325 | 49 | 96 | 1.0 | 2.0 | 0.00 | 0.00 | 0.00 | 45 | 1014.1 |
| 20260504015834 | 50 | 96 | 0.0 | 1.0 | 0.00 | 0.00 | 0.00 | 45 | 1014.1 |
| 20260504015325 | 50 | 96 | 0.0 | 0.0 | 0.00 | 0.00 | 0.00 | 45 | 1014.0 |
| 20260504014817 | 50 | 96 | 0.0 | 1.0 | 0.00 | 0.00 | 0.00 | 45 | 1013.9 |
| 20260504014329 | 51 | 96 | 0.0 | 1.0 | 0.00 | 0.00 | 0.00 | 44 | 1013.9 |
| 20260504013841 | 51 | 96 | 0.0 | 2.0 | 0.00 | 0.00 | 0.00 | 44 | 1013.9 |
| 20260504013332 | 51 | 96 | 0.0 | 2.0 | 0.00 | 0.00 | 0.00 | 44 | 1013.9 |
| 20260504012824 | 51 | 96 | 0.0 | 3.0 | 0.00 | 0.00 | 0.00 | 44 | 1013.8 |
| 20260504012320 | 51 | 102 | 0.0 | 3.0 | 0.00 | 0.00 | 0.00 | 44 | 1013.8 |
| 20260504011832 | 51 | 101 | 1.0 | 3.0 | 0.00 | 0.00 | 0.00 | 43 | 1013.7 |
| 20260504011324 | 51 | 119 | 0.0 | 3.0 | 0.00 | 0.00 | 0.00 | 42 | 1013.7 |
| 20260504010816 | 51 | 126 | 1.0 | 3.0 | 0.00 | 0.00 | 0.00 | 43 | 1013.7 |
| 20260504010328 | 51 | 125 | 0.0 | 2.0 | 0.00 | 0.00 | 0.00 | 44 | 1013.7 |
| 20260504005817 | 52 | 125 | 0.0 | 4.0 | 0.00 | 0.00 | 0.00 | 45 | 1013.7 |
| 20260504005330 | 52 | 125 | 2.0 | 4.0 | 0.00 | 0.00 | 0.00 | 41 | 1013.7 |
| 20260504004841 | 52 | 58 | 0.0 | 2.0 | 0.00 | 0.00 | 0.00 | 42 | 1013.6 |
| 20260504004332 | 52 | 360 | 0.0 | 2.0 | 0.00 | 0.00 | 0.00 | 41 | 1013.7 |
| 20260504003829 | 52 | 288 | 0.0 | 4.0 | 0.00 | 0.00 | 0.00 | 42 | 1013.5 |
| 20260504003321 | 52 | 287 | 1.0 | 3.0 | 0.00 | 0.00 | 0.00 | 40 | 1013.5 |
| 20260504002833 | 52 | 313 | 0.0 | 5.0 | 0.00 | 0.00 | 0.00 | 41 | 1013.6 |
| 20260504002324 | 52 | 9 | 1.0 | 3.0 | 0.00 | 0.00 | 0.00 | 41 | 1013.6 |
| 20260504001816 | 52 | 153 | 1.0 | 2.0 | 0.00 | 0.00 | 0.00 | 41 | 1013.6 |
| 20260504001328 | 53 | 117 | 0.0 | 2.0 | 0.00 | 0.00 | 0.00 | 41 | 1013.6 |
| 20260504000819 | 53 | 116 | 0.0 | 3.0 | 0.00 | 0.00 | 0.00 | 41 | 1013.6 |
| 20260504000331 | 53 | 313 | 0.0 | 3.0 | 0.00 | 0.00 | 0.00 | 40 | 1013.5 |
| 20260503235823 | 54 | 42 | 1.0 | 3.0 | 0.00 | 0.00 | 0.00 | 38 | 1013.5 |
| 20260503235315 | 54 | 56 | 0.0 | 8.0 | 0.00 | 0.00 | 0.00 | 38 | 1013.5 |
| 20260503234827 | 55 | 294 | 4.0 | 9.0 | 0.00 | 0.00 | 0.00 | 37 | 1013.5 |
| 20260503234319 | 55 | 98 | 4.0 | 9.0 | 0.00 | 0.00 | 0.00 | 37 | 1013.4 |
| 20260503233832 | 55 | 286 | 3.0 | 10.0 | 0.00 | 0.00 | 0.00 | 37 | 1013.4 |
| 20260503233344 | 56 | 306 | 6.0 | 10.0 | 0.00 | 0.00 | 0.00 | 37 | 1013.3 |
| 20260503232814 | 56 | 24 | 5.0 | 9.0 | 0.00 | 0.00 | 0.00 | 36 | 1013.3 |
| 20260503232326 | 56 | 15 | 3.0 | 9.0 | 0.00 | 0.00 | 0.00 | 36 | 1013.3 |
| 20260503231818 | 56 | 46 | 4.0 | 9.0 | 0.00 | 0.00 | 0.00 | 36 | 1013.3 |
| 20260503231313 | 56 | 57 | 3.0 | 9.0 | 0.00 | 0.00 | 0.00 | 37 | 1013.2 |
| 20260503230825 | 56 | 126 | 1.0 | 7.0 | 0.00 | 0.00 | 0.00 | 37 | 1013.2 |
| 20260503230317 | 56 | 291 | 3.0 | 9.0 | 0.00 | 0.00 | 0.00 | 36 | 1013.2 |
| 20260503225827 | 56 | 62 | 2.0 | 11.0 | 0.00 | 0.00 | 0.00 | 38 | 1013.3 |
| 20260503225319 | 57 | 185 | 6.0 | 11.0 | 0.00 | 0.00 | 0.00 | 36 | 1013.2 |
| 20260503224831 | 57 | 119 | 2.0 | 9.0 | 0.00 | 0.00 | 0.00 | 37 | 1013.3 |
| 20260503224322 | 57 | 299 | 3.0 | 8.0 | 0.00 | 0.00 | 0.00 | 36 | 1013.2 |
| 20260503223814 | 57 | 158 | 2.0 | 7.0 | 0.00 | 0.00 | 0.00 | 37 | 1013.2 |
| 20260503223331 | 57 | 178 | 3.0 | 9.0 | 0.00 | 0.00 | 0.00 | 37 | 1013.1 |
| 20260503222822 | 57 | 191 | 3.0 | 10.0 | 0.00 | 0.00 | 0.00 | 36 | 1013.2 |
| 20260503222334 | 57 | 49 | 2.0 | 9.0 | 0.00 | 0.00 | 0.00 | 37 | 1013.1 |
| 20260503221825 | 57 | 267 | 3.0 | 8.0 | 0.00 | 0.00 | 0.00 | 37 | 1013.1 |
| 20260503221317 | 57 | 275 | 3.0 | 8.0 | 0.00 | 0.00 | 0.00 | 37 | 1013.2 |
| 20260503220829 | 57 | 53 | 3.0 | 9.0 | 0.00 | 0.00 | 0.00 | 37 | 1013.3 |
| 20260503220320 | 57 | 170 | 4.0 | 9.0 | 0.00 | 0.00 | 0.00 | 35 | 1013.3 |
| 20260503215831 | 57 | 9 | 1.0 | 10.0 | 0.00 | 0.00 | 0.00 | 35 | 1013.3 |
| 20260503215322 | 57 | 78 | 3.0 | 14.0 | 0.00 | 0.00 | 0.00 | 36 | 1013.4 |
| 20260503214818 | 57 | 282 | 6.0 | 13.0 | 0.00 | 0.00 | 0.00 | 35 | 1013.3 |
| 20260503214331 | 58 | 294 | 6.0 | 14.0 | 0.00 | 0.00 | 0.00 | 34 | 1013.4 |
| 20260503213823 | 58 | 314 | 5.0 | 14.0 | 0.00 | 0.00 | 0.00 | 35 | 1013.3 |
| 20260503213315 | 58 | 279 | 3.0 | 10.0 | 0.00 | 0.00 | 0.00 | 37 | 1013.3 |
| 20260503212827 | 58 | 84 | 5.0 | 11.0 | 0.00 | 0.00 | 0.00 | 35 | 1013.3 |
| 20260503212319 | 58 | 20 | 4.0 | 12.0 | 0.00 | 0.00 | 0.00 | 36 | 1013.3 |
| 20260503211832 | 58 | 158 | 4.0 | 14.0 | 0.00 | 0.00 | 0.00 | 35 | 1013.2 |
| 20260503211324 | 58 | 71 | 5.0 | 11.0 | 0.00 | 0.00 | 0.00 | 36 | 1013.2 |
| 20260503210841 | 58 | 97 | 3.0 | 15.0 | 0.00 | 0.00 | 0.00 | 37 | 1013.4 |
| 20260503210352 | 58 | 263 | 3.0 | 15.0 | 0.00 | 0.00 | 0.00 | 36 | 1013.4 |
| 20260503205842 | 58 | 294 | 4.0 | 12.0 | 0.00 | 0.00 | 0.00 | 37 | 1013.4 |
| 20260503205313 | 58 | 200 | 5.0 | 11.0 | 0.00 | 0.00 | 0.00 | 35 | 1013.5 |
| 20260503204825 | 58 | 140 | 6.0 | 11.0 | 0.00 | 0.00 | 0.00 | 35 | 1013.4 |
| 20260503204317 | 58 | 63 | 4.0 | 8.0 | 0.00 | 0.00 | 0.00 | 36 | 1013.4 |
| 20260503203829 | 58 | 165 | 1.0 | 10.0 | 0.00 | 0.00 | 0.00 | 38 | 1013.4 |
| 20260503203341 | 58 | 17 | 3.0 | 10.0 | 0.00 | 0.00 | 0.00 | 38 | 1013.5 |
| 20260503202832 | 58 | 127 | 3.0 | 16.0 | 0.00 | 0.00 | 0.00 | 38 | 1013.6 |
| 20260503202323 | 58 | 281 | 9.0 | 16.0 | 0.00 | 0.00 | 0.00 | 35 | 1013.5 |